Location: Haram ta Haram Freeway
(35.0583°N, 51.4202°E)
Time: 14:53:52
(UTC+04:30)

FALCONSAT 3 - Visible Passes

Search period start: 29 July 2021 00:00
Search period end: 08 August 2021 00:00
Orbit: 440 x 445 km, 35.4° (Epoch: 28 July)

Date Brightness Start Highest point End Pass type
(mag) Time Alt. Az. Time Alt. Az. Time Alt. Az.
29 Jul ? 20:47:31 10° SW 20:50:52 40° SSE 20:54:12 10° E visible
29 Jul ? 22:25:46 10° W 22:27:52 33° W 22:27:52 33° W visible
30 Jul ? 21:44:18 10° W 21:47:51 88° S 21:48:44 49° E visible
31 Jul ? 21:02:51 10° WSW 21:06:23 82° S 21:09:28 13° E visible
31 Jul ? 22:41:26 10° W 22:42:50 22° W 22:42:50 22° W visible
01 Aug ? 21:59:58 10° W 22:03:26 83° NNW 22:03:26 83° NNW visible
02 Aug ? 21:18:27 10° W 21:22:00 83° N 21:23:58 25° E visible
02 Aug ? 22:57:04 10° W 22:57:20 12° W 22:57:20 12° W visible
03 Aug ? 20:36:57 10° W 20:40:30 82° N 20:44:02 10° E visible
03 Aug ? 22:15:32 10° W 22:17:49 35° W 22:17:49 35° W visible
04 Aug ? 21:34:01 10° W 21:37:33 69° SSW 21:38:15 51° SE visible
05 Aug ? 20:52:30 10° W 20:56:01 76° SSW 20:58:42 16° ESE visible
05 Aug ? 22:31:23 10° W 22:32:03 14° WSW 22:32:03 14° WSW visible
06 Aug ? 21:49:44 10° W 21:52:30 29° SW 21:52:30 29° SW visible
07 Aug ? 21:08:06 10° W 21:11:21 35° SSW 21:12:57 22° SSE visible
